Regional Weather Roundup
Issued by NWS Jackson, KY

Home | Current Version | Previous Version | Text Only | Print | Product List | Glossary On
Versions: 1 2 3 4 5 6 7 8 9 10 11 12 13 14 15 16 17 18 19 20 21 22 23 24 25 26 27
000
ASUS43 KJKL 290510
RWRJKL

EAST KENTUCKY HOURLY WEATHER ROUNDUP
NATIONAL WEATHER SERVICE JACKSON KY
100 AM EDT SAT APR 29 2017

NOTE: "FAIR" INDICATES FEW OR NO CLOUDS BELOW 12,000 FEET WITH
NO SIGNIFICANT WEATHER AND/OR OBSTRUCTIONS TO VISIBILITY.

* THESE REPORTS ARE NOT UNDER NWS QUALITY CONTROL AND MAY NOT
  REPORT WEATHER SUCH AS PRECIPITATION AND FOG.

KYZ079-080-083-085-087-088-110-112-115-119-120-290600
...EASTERN KENTUCKY...

CITY           SKY/WX    TMP DP  RH WIND       PRES   REMARKS
JACKSON        MOCLDY    74  63  68 VRB5      29.99S
LONDON         PTCLDY    73  62  68 S5        29.99S
SOMERSET*      CLOUDY    73  63  68 S7        29.97F
MONTICELLO*    CLEAR     75  65  70 SE6       29.96F
WILLIAMSBURG*  PTCLDY    75  64  69 S8        29.99S
MIDDLESBORO*   PTCLDY    74  64  72 CALM      30.03F
HARLAN APT*    CLOUDY    75  59  57 S5        30.04S
PIKE CO APT*     N/A     75  61  62 S6        30.02S
BIG SANDY APT* CLEAR     76  63  62 S9        30.00R
MOREHEAD APT*  CLOUDY    75  61  60 S12G17    29.97R
$$

KYZ035-036-041-042-044-050-067-078-099-290600
...CENTRAL KENTUCKY...

CITY           SKY/WX    TMP DP  RH WIND       PRES   REMARKS
MT STERLING*   CLOUDY    73  64  73 SW10G16   29.96R
FLEMING/MASON* CLOUDY    68  61  78 NE5       29.98R
DANVILLE*      CLOUDY    73  63  68 S8        29.95R
LEXINGTON      CLOUDY    74  63  68 S10       29.93R
FRANKFORT      CLOUDY    76  63  64 S13       29.88R
LOUISVILLE     CLOUDY    70  65  84 N9        29.87F THUNDER
LEBANON*         N/A     75  64  69 S14G23    29.92R
GLASGOW*       PTCLDY    75  64  68 S10       29.90R
BOWLING GREEN  CLOUDY    78  68  71 S17G24    29.88R
$$

KYZ091>093-OHZ055-061-077-WVZ005-015-034-035-042-290600
...SOUTHERN OHIO/WEST VIRGINIA...

CITY           SKY/WX    TMP DP  RH WIND       PRES   REMARKS
COVINGTON      LGT RAIN  64  63  96 NE7       29.93R
COLUMBUS       LGT RAIN  58  55  90 SE9       29.97S
DAYTON         CLOUDY    58  56  93 SE15      29.94F
WILMINGTON     TSTM      57  57 100 E12       29.94F
HUNTINGTON     CLOUDY    75  60  59 SW6       29.95R
CHARLESTON     CLOUDY    69  55  60 CALM      29.98R
PINEVILLE*     PTCLDY    65  60  85 MISG      30.11R
BECKLEY        CLEAR     68  57  68 S7        30.10R
BLUEFIELD      CLEAR     67  57  70 SW7       30.14R
LOGAN CO APT*    N/A     75  57  53 VRB6      30.03R
$$

VAZ002-007-008-TNZ017-027-036-066-071-290600
...SOUTHWEST VIRGINIA/EAST TENNESSEE...

CITY           SKY/WX    TMP DP  RH WIND       PRES   REMARKS
WISE*          CLEAR     70  59  68 S9        30.11F
JONESVILLE*    CLOUDY    66  64  94 CALM      30.07S
ABINGDON*      CLEAR     67  62  83 CALM      30.11R
BRISTOL        CLEAR     65  60  84 N3        30.08R
MORRISTOWN*    PTCLDY    66  64  94 CALM      30.04S
SEVIERVILLE*   CLEAR     64  63  94 CALM      30.02S
KNOXVILLE      CLEAR     72  62  71 S8        30.01F
LAFOLLETTE*    MOCLDY    77  64  65 S9G20     30.03F
OAK RIDGE      CLEAR     76  63  64 VRB6      30.03F
CROSSVILLE     CLEAR     72  64  76 S12G22    30.04F
NASHVILLE      CLEAR     78  67  68 S21G30    29.88F
$$

...KEY TO REMARKS...
VSB - VISIBILITY IN MILES
WCI - WIND CHILL INDEX
HX  - HEAT INDEX

$$




USA.gov is the U.S. government's official web portal to all federal, state and local government web resources and services.